Regional Weather Roundup
Issued by NWS

Home | Current Version | Previous Version | Graphics & Text | Print | Product List | Glossary On
Versions: 1 2 3 4 5 6 7 8 9 10 11 12 13 14 15 16 17 18 19 20 21 22 23 24 25 26 27 28 29 30 31 32 33 34 35 36 37 38 39 40 41 42 43 44 45 46 47 48 49 50
000
ASUS43 KLMK 221210
RWRKY
KENTUCKY REGIONAL WEATHER ROUNDUP
NATIONAL WEATHER SERVICE LOUISVILLE KY
800 AM EDT TUE JUL 22 2014

NOTE "FAIR" INDICATES FEW OR NO CLOUDS BELOW 12,000 FEET
WITH NO SIGNIFICANT WEATHER AND/OR OBSTRUCTIONS TO VISIBILITY.

KYZ001>023-026-027-061>063-070>075-221300-
WESTERN AND SOUTH CENTRAL KENTUCKY

CITY           SKY/WX    TMP DP  RH WIND       PRES   REMARKS
PADUCAH        SUNNY     70  67  90 CALM      30.09F FOG
HENDERSON      CLOUDY    66  63  88 CALM      30.10S VSB<1/4
OWENSBORO      SUNNY     69  68  97 CALM      30.11R FOG
HOPKINSVILLE   SUNNY     69  69 100 NE2       30.10R
BOWLING GREEN  SUNNY     73  68  84 CALM      30.11R
GLASGOW        SUNNY     71  71 100 CALM      30.12R
$$

KYZ024-025-028>034-038-045-046-053-221300-
NORTH CENTRAL KENTUCKY

CITY           SKY/WX    TMP DP  RH WIND       PRES   REMARKS
LOUISVILLE/SDF MOSUNNY   74  69  85 CALM      30.11R HAZE
LOUISVILLE/LOU SUNNY     72  68  87 NW5       30.12R FOG
FORT KNOX      SUNNY     71  69  93 CALM      30.12R
$$

KYZ035>037-039>044-047>052-055>060-089>105-221300-
NORTHEAST KENTUCKY

CITY           SKY/WX    TMP DP  RH WIND       PRES   REMARKS
LEXINGTON      SUNNY     72  68  87 CALM      30.14R
COVINGTON      MOSUNNY   73  69  87 CALM      30.14R FOG
FRANKFORT      SUNNY     70  67  90 CALM      30.12R
$$

KYZ054-064>069-076>088-106>120-221300-
SOUTHEAST KENTUCKY

CITY           SKY/WX    TMP DP  RH WIND       PRES   REMARKS
JACKSON        SUNNY     72  67  84 CALM      30.17R
LONDON         LGT RAIN  73  68  84 CALM      30.17R
SOMERSET       SUNNY     72  72 100 CALM      30.16R
MIDDLESBORO    CLOUDY    69  67  94 CALM      30.18R
MONTICELLO     SUNNY     72  71  96 CALM      30.17R FOG
$$




USA.gov is the U.S. government's official web portal to all federal, state and local government web resources and services.